FW0827 Weather Reports


Display with metric or nautical units.
time (UTC)temp
F
wind
direction
speed
MPH
gust
MPH
rain 1hr
in
rain 24hr
in
rain mn
in
humidity
%
barometer
mb
20260506015204 69 250 0.0 3.0 0.00 0.00 0.00 60 1010.0
20260506014928 69 254 0.0 0.0 0.00 0.00 0.00 61 1026.6
20260506014426 70 254 0.0 0.0 0.00 0.00 0.00 60 1026.5
20260506013922 70 255 0.0 0.0 0.00 0.00 0.00 60 1026.6
20260506013703 70 245 2.0 5.0 0.00 0.00 0.00 58 1009.8
20260506013420 70 229 0.0 2.0 0.00 0.00 0.00 59 1026.4
20260506013203 71 256 0.0 3.0 0.00 0.00 0.00 59 1009.8
20260506012916 71 195 1.0 3.0 0.00 0.00 0.00 59 1026.6
20260506012704 71 250 0.0 5.0 0.00 0.00 0.00 58 1009.9
20260506012413 71 212 0.0 2.0 0.00 0.00 0.00 58 1026.4
20260506012205 71 214 2.0 5.0 0.00 0.00 0.00 58 1009.6
20260506011910 71 225 0.0 5.0 0.00 0.00 0.00 57 1026.4
20260506011703 71 251 1.0 3.0 0.00 0.00 0.00 58 1009.7
20260506011407 71 245 0.0 0.0 0.00 0.00 0.00 57 1026.3
20260506011203 71 253 0.0 3.0 0.00 0.00 0.00 58 1009.6
20260506010904 71 243 0.0 2.0 0.00 0.00 0.00 56 1026.3
20260506010703 71 226 1.0 3.0 0.00 0.00 0.00 56 1009.5
20260506010402 71 232 0.0 0.0 0.00 0.00 0.00 58 1026.1
20260506010203 72 231 0.0 1.0 0.00 0.00 0.00 56 1009.5
20260506005858 72 236 0.0 2.0 0.00 0.00 0.00 55 1026.2
20260506005703 72 239 0.0 5.0 0.00 0.00 0.00 54 1009.4
20260506005356 72 258 0.0 5.0 0.00 0.00 0.00 55 1026.1
20260506005205 72 227 2.0 5.0 0.00 0.00 0.00 55 1009.4
20260506004851 72 251 0.0 2.0 0.00 0.00 0.00 56 1025.9
20260506004703 72 235 0.0 5.0 0.00 0.00 0.00 55 1009.3
20260506004350 72 242 0.0 0.0 0.00 0.00 0.00 54 1026.0
20260506004203 72 220 2.0 5.0 0.00 0.00 0.00 54 1009.2
20260506003845 72 233 0.0 0.0 0.00 0.00 0.00 53 1026.1
20260506003705 72 234 0.0 1.0 0.00 0.00 0.00 54 1009.3
20260506003341 72 253 0.0 2.0 0.00 0.00 0.00 54 1025.9
20260506003203 72 260 0.0 5.0 0.00 0.00 0.00 55 1009.3
20260506002838 72 239 0.0 2.0 0.00 0.00 0.00 54 1025.9
20260506002703 72 252 0.0 5.0 0.00 0.00 0.00 54 1009.2
20260506002334 72 263 0.0 0.0 0.00 0.00 0.00 54 1026.0
20260506002203 72 263 0.0 0.0 0.00 0.00 0.00 54 1009.1
20260506001830 73 263 0.0 0.0 0.00 0.00 0.00 53 1025.8
20260506001703 73 271 0.0 0.0 0.00 0.00 0.00 53 1009.0
20260506001327 73 280 0.0 0.0 0.00 0.00 0.00 52 1026.0
20260506001204 73 292 0.0 1.0 0.00 0.00 0.00 52 1009.0
20260506000824 74 264 0.0 0.0 0.00 0.00 0.00 51 1025.7
20260506000323 74 235 0.0 0.0 0.00 0.00 0.00 50 1025.9
20260506000205 74 229 0.0 5.0 0.00 0.00 0.00 50 1008.9
20260505235819 74 242 0.0 5.0 0.00 0.00 0.00 49 1025.5
20260505235704 74 228 2.0 5.0 0.00 0.00 0.00 49 1008.9
20260505235316 75 259 0.0 3.0 0.00 0.00 0.00 50 1025.9
20260505235203 75 212 1.0 7.0 0.00 0.00 0.00 49 1009.0
20260505234813 75 234 2.0 7.0 0.00 0.00 0.00 48 1025.4
20260505234311 75 214 5.0 8.0 0.00 0.00 0.00 48 1025.5
20260505233807 75 223 2.0 5.0 0.00 0.00 0.00 48 1025.4
20260505233703 75 231 0.0 8.0 0.00 0.00 0.00 48 1008.8
20260505233305 75 246 1.0 3.0 0.00 0.00 0.00 49 1025.4
20260505233203 75 230 1.0 7.0 0.00 0.00 0.00 48 1008.7
20260505232802 75 226 1.0 5.0 0.00 0.00 0.00 48 1025.4
20260505232704 75 217 3.0 8.0 0.00 0.00 0.00 48 1008.6
20260505232300 75 270 0.0 5.0 0.00 0.00 0.00 49 1025.7
20260505232204 75 189 3.0 8.0 0.00 0.00 0.00 47 1008.8
20260505231756 75 217 5.0 8.0 0.00 0.00 0.00 48 1025.4
20260505231704 76 261 0.0 7.0 0.00 0.00 0.00 49 1008.8
20260505231255 76 247 4.0 7.0 0.00 0.00 0.00 47 1025.2
20260505231204 76 236 2.0 8.0 0.00 0.00 0.00 48 1008.7
20260505230753 76 205 2.0 8.0 0.00 0.00 0.00 48 1025.4
20260505230704 76 263 0.0 13.0 0.00 0.00 0.00 48 1008.8
20260505230249 76 196 5.0 8.0 0.00 0.00 0.00 47 1025.5
20260505230204 76 258 0.0 13.0 0.00 0.00 0.00 47 1008.9
20260505225746 76 238 3.0 8.0 0.00 0.00 0.00 47 1025.4
20260505225243 76 234 3.0 5.0 0.00 0.00 0.00 47 1025.5
20260505224738 77 217 4.0 7.0 0.00 0.00 0.00 47 1025.3
20260505224704 76 208 2.0 12.0 0.00 0.00 0.00 47 1008.8
20260505224236 77 235 2.0 7.0 0.00 0.00 0.00 48 1025.4
20260505224204 76 252 5.0 12.0 0.00 0.00 0.00 47 1008.6
20260505223733 77 246 2.0 5.0 0.00 0.00 0.00 49 1025.3
20260505223703 76 203 3.0 9.0 0.00 0.00 0.00 47 1008.5
20260505223229 77 214 4.0 10.0 0.00 0.00 0.00 47 1025.3
20260505222725 77 243 1.0 2.0 0.00 0.00 0.00 48 1025.3
20260505222703 77 243 1.0 9.0 0.00 0.00 0.00 47 1008.8
20260505222221 77 260 3.0 10.0 0.00 0.00 0.00 47 1025.6
20260505222204 77 218 3.0 9.0 0.00 0.00 0.00 46 1008.8
20260505221719 77 207 4.0 10.0 0.00 0.00 0.00 47 1025.5
20260505221704 77 247 1.0 9.0 0.00 0.00 0.00 47 1008.7
20260505221215 77 232 5.0 7.0 0.00 0.00 0.00 46 1025.2
20260505221203 77 232 2.0 7.0 0.00 0.00 0.00 48 1008.6
20260505220712 77 202 1.0 7.0 0.00 0.00 0.00 47 1025.4
20260505220210 77 212 4.0 5.0 0.00 0.00 0.00 46 1025.4
20260505220204 77 213 1.0 9.0 0.00 0.00 0.00 47 1008.6
20260505215708 78 206 3.0 7.0 0.00 0.00 0.00 45 1025.3
20260505215704 78 206 3.0 8.0 0.00 0.00 0.00 45 1008.4
20260505215206 78 215 1.0 8.0 0.00 0.00 0.00 45 1025.2
20260505215204 78 218 3.0 9.0 0.00 0.00 0.00 45 1008.5
20260505214703 78 268 1.0 10.0 0.00 0.00 0.00 46 1025.1
20260505214203 78 221 3.0 8.0 0.00 0.00 0.00 45 1008.5
20260505214200 78 198 3.0 8.0 0.00 0.00 0.00 45 1025.0
20260505213705 78 226 3.0 12.0 0.00 0.00 0.00 45 1008.3
20260505213658 78 232 2.0 7.0 0.00 0.00 0.00 46 1025.1
20260505213204 78 246 2.0 12.0 0.00 0.00 0.00 45 1008.3
20260505213155 78 220 4.0 11.0 0.00 0.00 0.00 45 1025.1
20260505212703 78 249 3.0 12.0 0.00 0.00 0.00 45 1008.4
20260505212650 78 218 2.0 5.0 0.00 0.00 0.00 45 1025.2
20260505212148 78 272 1.0 11.0 0.00 0.00 0.00 46 1024.8
20260505211704 78 193 3.0 12.0 0.00 0.00 0.00 45 1008.2
20260505211645 78 128 3.0 10.0 0.00 0.00 0.00 45 1025.0
20260505211204 78 204 6.0 12.0 0.00 0.00 0.00 46 1008.3
20260505211142 78 270 4.0 11.0 0.00 0.00 0.00 45 1025.1
20260505210704 78 215 2.0 8.0 0.00 0.00 0.00 46 1008.5
20260505210639 78 213 5.0 8.0 0.00 0.00 0.00 45 1025.1
20260505210203 78 203 3.0 8.0 0.00 0.00 0.00 45 1008.4
20260505210135 78 233 1.0 8.0 0.00 0.00 0.00 48 1025.1
20260505205633 78 189 0.0 0.0 0.00 0.00 0.00 46 1025.3
20260505205204 78 239 2.0 14.0 0.00 0.00 0.00 45 1008.5
20260505205131 78 220 3.0 5.0 0.00 0.00 0.00 46 1025.2
20260505204627 78 259 4.0 8.0 0.00 0.00 0.00 46 1025.2
20260505204204 78 218 5.0 13.0 0.00 0.00 0.00 44 1008.6
20260505204125 78 219 8.0 11.0 0.00 0.00 0.00 44 1025.2
20260505203704 78 257 3.0 13.0 0.00 0.00 0.00 45 1008.5
20260505203621 78 242 2.0 11.0 0.00 0.00 0.00 45 1025.3
20260505203118 79 249 4.0 8.0 0.00 0.00 0.00 44 1025.0
20260505202705 79 252 2.0 12.0 0.00 0.00 0.00 45 1008.6
20260505202609 79 258 4.0 10.0 0.00 0.00 0.00 45 1025.1
20260505202105 78 208 5.0 11.0 0.00 0.00 0.00 45 1025.0
20260505201704 79 213 6.0 13.0 0.00 0.00 0.00 44 1008.5
20260505201602 79 215 7.0 13.0 0.00 0.00 0.00 44 1025.2
20260505201204 79 147 6.0 12.0 0.00 0.00 0.00 46 1008.8
20260505201100 79 128 7.0 10.0 0.00 0.00 0.00 46 1025.5
20260505200557 80 213 2.0 8.0 0.00 0.00 0.00 47 1025.2
20260505200054 80 264 4.0 7.0 0.00 0.00 0.00 46 1025.4
20260505195703 79 261 2.0 16.0 0.00 0.00 0.00 44 1008.7
20260505195550 79 269 3.0 7.0 0.00 0.00 0.00 44 1025.3
20260505195203 79 212 6.0 16.0 0.00 0.00 0.00 44 1008.7
20260505195048 79 220 6.0 16.0 0.00 0.00 0.00 44 1025.4
20260505194705 80 203 6.0 14.0 0.00 0.00 0.00 43 1008.8
20260505194545 80 209 8.0 11.0 0.00 0.00 0.00 43 1025.4
20260505194204 80 206 5.0 12.0 0.00 0.00 0.00 45 1008.8
20260505194040 80 201 5.0 11.0 0.00 0.00 0.00 45 1025.5
20260505193705 80 213 3.0 13.0 0.00 0.00 0.00 45 1009.0
20260505193537 80 226 3.0 8.0 0.00 0.00 0.00 45 1025.7
20260505193204 80 223 6.0 17.0 0.00 0.00 0.00 43 1008.7
20260505193035 80 220 9.0 18.0 0.00 0.00 0.00 43 1025.3
20260505192704 80 258 2.0 8.0 0.00 0.00 0.00 45 1008.8
20260505192533 80 263 1.0 8.0 0.00 0.00 0.00 45 1025.4
20260505192030 80 219 1.0 8.0 0.00 0.00 0.00 44 1025.6
20260505191703 80 238 5.0 9.0 0.00 0.00 0.00 43 1009.0
20260505191528 80 246 7.0 10.0 0.00 0.00 0.00 43 1025.7
20260505191203 80 212 3.0 7.0 0.00 0.00 0.00 43 1008.9
20260505191026 80 203 6.0 7.0 0.00 0.00 0.00 43 1025.5
20260505190703 79 243 3.0 13.0 0.00 0.00 0.00 44 1009.1
20260505190525 79 240 5.0 8.0 0.00 0.00 0.00 44 1025.8
20260505190202 79 191 8.0 13.0 0.00 0.00 0.00 43 1009.0
20260505190022 80 176 8.0 11.0 0.00 0.00 0.00 42 1025.7
20260505185704 80 213 4.0 9.0 0.00 0.00 0.00 44 1009.1
20260505185519 79 187 5.0 7.0 0.00 0.00 0.00 44 1025.7
20260505185203 79 121 3.0 9.0 0.00 0.00 0.00 43 1009.1
20260505185015 79 169 0.0 7.0 0.00 0.00 0.00 46 1025.8
20260505184703 79 208 3.0 12.0 0.00 0.00 0.00 43 1009.3
20260505184512 79 258 0.0 10.0 0.00 0.00 0.00 47 1026.0
20260505184202 80 202 6.0 13.0 0.00 0.00 0.00 44 1009.2
20260505184009 80 244 6.0 10.0 0.00 0.00 0.00 45 1025.9
20260505183506 81 266 0.0 10.0 0.00 0.00 0.00 46 1025.8
20260505183203 80 233 2.0 7.0 0.00 0.00 0.00 45 1009.5
20260505183002 80 216 3.0 7.0 0.00 0.00 0.00 45 1026.2
20260505182500 79 228 8.0 13.0 0.00 0.00 0.00 45 1026.2
20260505182205 79 208 3.0 13.0 0.00 0.00 0.00 45 1009.3
20260505181955 79 233 3.0 8.0 0.00 0.00 0.00 44 1026.0
20260505181703 79 234 6.0 13.0 0.00 0.00 0.00 43 1009.4
20260505181453 80 245 7.0 10.0 0.00 0.00 0.00 44 1026.1
20260505181203 79 236 2.0 12.0 0.00 0.00 0.00 45 1009.6
20260505180950 79 243 1.0 8.0 0.00 0.00 0.00 45 1026.3
20260505180703 80 197 5.0 8.0 0.00 0.00 0.00 44 1009.5
20260505180446 80 210 5.0 8.0 0.00 0.00 0.00 44 1026.1
20260505180203 80 214 4.0 8.0 0.00 0.00 0.00 47 1009.6
20260505175943 80 210 4.0 7.0 0.00 0.00 0.00 47 1026.4
20260505175703 79 232 3.0 7.0 0.00 0.00 0.00 47 1009.7
20260505175439 80 207 3.0 7.0 0.00 0.00 0.00 45 1026.4
20260505175203 79 218 2.0 9.0 0.00 0.00 0.00 50 1009.7
20260505174935 79 218 4.0 7.0 0.00 0.00 0.00 50 1026.5
20260505174703 79 205 5.0 9.0 0.00 0.00 0.00 50 1009.6
20260505174428 79 215 8.0 10.0 0.00 0.00 0.00 50 1026.5
20260505174204 79 227 2.0 5.0 0.00 0.00 0.00 54 1009.8
20260505173924 80 191 2.0 5.0 0.00 0.00 0.00 52 1026.5
20260505173420 80 268 0.0 2.0 0.00 0.00 0.00 55 1026.5
20260505173204 80 219 2.0 7.0 0.00 0.00 0.00 52 1009.8
20260505172918 80 254 0.0 7.0 0.00 0.00 0.00 52 1026.5
20260505172415 79 246 0.0 7.0 0.00 0.00 0.00 50 1026.7
20260505172203 79 218 3.0 13.0 0.00 0.00 0.00 51 1010.1
20260505171914 79 249 5.0 7.0 0.00 0.00 0.00 51 1026.5
20260505171412 79 199 3.0 5.0 0.00 0.00 0.00 53 1026.8
20260505170909 79 218 4.0 8.0 0.00 0.00 0.00 50 1026.9
20260505170704 79 198 1.0 8.0 0.00 0.00 0.00 52 1010.1
20260505170405 79 226 5.0 8.0 0.00 0.00 0.00 50 1026.9
20260505170204 79 245 2.0 7.0 0.00 0.00 0.00 52 1010.0
20260505165900 79 191 3.0 7.0 0.00 0.00 0.00 51 1026.9
20260505165703 79 215 2.0 9.0 0.00 0.00 0.00 51 1010.2
20260505165350 79 180 7.0 10.0 0.00 0.00 0.00 51 1026.7
20260505165203 80 223 2.0 7.0 0.00 0.00 0.00 49 1010.3
20260505164846 80 223 1.0 7.0 0.00 0.00 0.00 53 1026.8
20260505164703 80 255 1.0 5.0 0.00 0.00 0.00 50 1010.3
20260505164343 80 240 1.0 5.0 0.00 0.00 0.00 49 1026.8
20260505164203 80 272 0.0 7.0 0.00 0.00 0.00 50 1010.3
20260505163841 80 268 3.0 5.0 0.00 0.00 0.00 47 1027.0
20260505163703 80 209 2.0 7.0 0.00 0.00 0.00 49 1010.4
20260505163340 80 204 3.0 7.0 0.00 0.00 0.00 54 1026.9
20260505163205 80 219 3.0 7.0 0.00 0.00 0.00 50 1010.3
20260505162838 79 230 1.0 3.0 0.00 0.00 0.00 49 1026.9
20260505162703 79 239 0.0 8.0 0.00 0.00 0.00 49 1010.6
20260505162334 80 228 4.0 5.0 0.00 0.00 0.00 49 1027.0
20260505162204 79 217 2.0 12.0 0.00 0.00 0.00 52 1010.2
20260505161831 79 204 2.0 8.0 0.00 0.00 0.00 50 1027.1
20260505161328 79 286 0.0 3.0 0.00 0.00 0.00 54 1027.2
20260505161203 79 253 3.0 8.0 0.00 0.00 0.00 50 1010.3
20260505160825 79 216 5.0 5.0 0.00 0.00 0.00 52 1027.2
20260505160703 79 224 3.0 8.0 0.00 0.00 0.00 49 1010.6
20260505160323 79 241 4.0 8.0 0.00 0.00 0.00 50 1027.0
20260505160204 79 259 1.0 3.0 0.00 0.00 0.00 51 1010.5
20260505153256 78 256 0.0 7.0 0.00 0.00 0.00 51 1027.4
20260505153204 78 227 1.0 7.0 0.00 0.00 0.00 53 1010.7
20260505152753 78 242 0.0 0.0 0.00 0.00 0.00 54 1027.2
20260505152704 78 265 0.0 5.0 0.00 0.00 0.00 53 1010.6
20260505152249 77 227 1.0 3.0 0.00 0.00 0.00 53 1027.4
20260505152203 77 234 1.0 7.0 0.00 0.00 0.00 52 1010.7
20260505151749 77 211 0.0 7.0 0.00 0.00 0.00 52 1027.5
20260505151703 77 223 2.0 7.0 0.00 0.00 0.00 51 1010.7
20260505151247 77 228 0.0 7.0 0.00 0.00 0.00 54 1027.4
20260505151204 77 233 3.0 7.0 0.00 0.00 0.00 50 1010.9
20260505150744 78 223 5.0 7.0 0.00 0.00 0.00 51 1027.4
20260505150703 78 200 2.0 5.0 0.00 0.00 0.00 51 1010.9
20260505150241 78 253 0.0 2.0 0.00 0.00 0.00 56 1027.6
20260505150203 78 262 1.0 8.0 0.00 0.00 0.00 54 1010.7
20260505140206 75 267 0.0 0.0 0.00 0.00 0.00 54 1027.7
20260505140203 75 273 0.0 1.0 0.00 0.00 0.00 58 1011.2
20260505130130 66 245 0.0 0.0 0.00 0.00 0.00 67 1028.4
20260505124705 68 254 0.0 0.0 0.00 0.00 0.00 65 1011.8
20260505124619 68 246 0.0 0.0 0.00 0.00 0.00 65 1028.5
20260505124115 67 276 0.0 0.0 0.00 0.00 0.00 67 1028.5
20260505123704 66 263 0.0 3.0 0.00 0.00 0.00 68 1011.7
20260505123611 66 263 0.0 0.0 0.00 0.00 0.00 68 1028.4
20260505123205 66 275 0.0 3.0 0.00 0.00 0.00 66 1011.5
20260505123108 66 276 0.0 2.0 0.00 0.00 0.00 66 1028.1
20260505122704 65 203 0.0 3.0 0.00 0.00 0.00 69 1011.7
20260505122605 65 170 0.0 0.0 0.00 0.00 0.00 69 1028.3
20260505122204 64 280 0.0 3.0 0.00 0.00 0.00 69 1011.8
20260505122102 64 274 0.0 2.0 0.00 0.00 0.00 69 1028.5
20260505121703 64 265 0.0 1.0 0.00 0.00 0.00 69 1011.6
20260505121559 64 265 0.0 0.0 0.00 0.00 0.00 69 1028.2
20260505121204 64 244 0.0 1.0 0.00 0.00 0.00 70 1011.6
20260505121055 64 244 0.0 0.0 0.00 0.00 0.00 70 1028.3
20260505120703 64 238 0.0 1.0 0.00 0.00 0.00 70 1011.6
20260505120551 64 251 0.0 0.0 0.00 0.00 0.00 70 1028.3
20260505120204 64 235 0.0 0.0 0.00 0.00 0.00 71 1011.3
20260505120047 64 235 0.0 0.0 0.00 0.00 0.00 71 1028.0
20260505115704 64 263 0.0 0.0 0.00 0.00 0.00 71 1011.4
20260505115542 64 264 0.0 0.0 0.00 0.00 0.00 71 1028.1
20260505115203 63 264 0.0 0.0 0.00 0.00 0.00 72 1011.4
20260505115040 63 264 0.0 0.0 0.00 0.00 0.00 72 1028.1
20260505114536 63 272 0.0 0.0 0.00 0.00 0.00 74 1028.1
20260505114204 63 275 0.0 0.0 0.00 0.00 0.00 74 1011.5
20260505114032 63 279 0.0 0.0 0.00 0.00 0.00 74 1028.1
20260505113704 62 15 0.0 0.0 0.00 0.00 0.00 74 1011.4
20260505113524 62 16 0.0 0.0 0.00 0.00 0.00 74 1028.0
20260505113203 62 28 0.0 0.0 0.00 0.00 0.00 74 1011.4
20260505113020 63 28 0.0 0.0 0.00 0.00 0.00 74 1027.9
20260505112704 62 282 0.0 0.0 0.00 0.00 0.00 75 1011.2
20260505112516 62 265 0.0 0.0 0.00 0.00 0.00 74 1027.7
20260505112014 62 265 0.0 0.0 0.00 0.00 0.00 76 1028.0
20260505111704 62 265 0.0 5.0 0.00 0.00 0.00 76 1011.1
20260505111508 62 265 0.0 2.0 0.00 0.00 0.00 78 1027.7
20260505111205 61 265 0.0 0.0 0.00 0.00 0.00 78 1011.1
20260505111005 62 265 0.0 0.0 0.00 0.00 0.00 77 1027.8
20260505110704 61 266 0.0 0.0 0.00 0.00 0.00 81 1010.8
20260505110502 61 266 0.0 0.0 0.00 0.00 0.00 81 1027.7
20260505110203 59 266 0.0 0.0 0.00 0.00 0.00 83 1011.0
20260505102204 52 327 0.0 0.0 0.00 0.00 0.00 92 1010.7
20260505101933 52 333 0.0 0.0 0.00 0.00 0.00 92 1027.4
20260505101433 52 320 0.0 0.0 0.00 0.00 0.00 92 1027.3
20260505101204 52 320 0.0 0.0 0.00 0.00 0.00 91 1010.7
20260505100928 52 320 0.0 0.0 0.00 0.00 0.00 91 1027.3
20260505100704 52 327 0.0 1.0 0.00 0.00 0.00 91 1010.8
20260505100420 52 334 0.0 2.0 0.00 0.00 0.00 91 1027.1
20260505095915 53 135 0.0 0.0 0.00 0.00 0.00 90 1027.2
20260505095413 53 284 0.0 0.0 0.00 0.00 0.00 90 1027.2
20260505095203 53 263 0.0 0.0 0.00 0.00 0.00 89 1010.3
20260505094909 53 263 0.0 0.0 0.00 0.00 0.00 89 1027.1
20260505094703 54 263 0.0 0.0 0.00 0.00 0.00 88 1010.5
20260505094406 54 263 0.0 0.0 0.00 0.00 0.00 88 1027.1
20260505094203 54 263 0.0 0.0 0.00 0.00 0.00 88 1010.4
20260505093901 54 263 0.0 0.0 0.00 0.00 0.00 88 1027.1
20260505093704 54 263 0.0 0.0 0.00 0.00 0.00 88 1010.3
20260505093359 55 263 0.0 0.0 0.00 0.00 0.00 88 1027.1
20260505092856 54 263 0.0 0.0 0.00 0.00 0.00 88 1026.8
20260505092703 54 263 0.0 0.0 0.00 0.00 0.00 88 1010.5
20260505092354 54 263 0.0 0.0 0.00 0.00 0.00 88 1027.1
20260505092203 54 263 0.0 0.0 0.00 0.00 0.00 87 1010.4
20260505091851 55 263 0.0 0.0 0.00 0.00 0.00 87 1027.1
20260505091703 55 263 0.0 0.0 0.00 0.00 0.00 87 1010.4
20260505091349 54 263 0.0 0.0 0.00 0.00 0.00 88 1027.0
20260505091203 54 263 0.0 0.0 0.00 0.00 0.00 87 1010.3
20260505090847 54 263 0.0 0.0 0.00 0.00 0.00 87 1027.1
20260505090345 54 263 0.0 0.0 0.00 0.00 0.00 87 1027.1
20260505090205 55 263 0.0 0.0 0.00 0.00 0.00 86 1010.4
20260505085842 55 263 0.0 0.0 0.00 0.00 0.00 86 1027.0
20260505085702 55 263 0.0 0.0 0.00 0.00 0.00 86 1010.5
20260505085340 55 263 0.0 0.0 0.00 0.00 0.00 85 1027.1
20260505084837 55 263 0.0 0.0 0.00 0.00 0.00 85 1027.0
20260505084703 55 263 0.0 0.0 0.00 0.00 0.00 86 1010.4
20260505084336 55 263 0.0 0.0 0.00 0.00 0.00 86 1026.9
20260505084203 55 263 0.0 0.0 0.00 0.00 0.00 86 1010.3
20260505083832 55 263 0.0 0.0 0.00 0.00 0.00 86 1027.1
20260505083703 55 263 0.0 0.0 0.00 0.00 0.00 85 1010.3
20260505083330 55 263 0.0 0.0 0.00 0.00 0.00 85 1027.0
20260505083203 55 263 0.0 0.0 0.00 0.00 0.00 84 1010.2
20260505082826 56 263 0.0 0.0 0.00 0.00 0.00 84 1026.8
20260505082703 56 263 0.0 0.0 0.00 0.00 0.00 83 1010.2
20260505082322 56 263 0.0 0.0 0.00 0.00 0.00 83 1027.0
20260505082203 56 263 0.0 0.0 0.00 0.00 0.00 83 1010.3
20260505081819 56 263 0.0 0.0 0.00 0.00 0.00 83 1027.1
20260505081703 56 263 0.0 0.0 0.00 0.00 0.00 83 1010.3
20260505081316 56 263 0.0 0.0 0.00 0.00 0.00 82 1026.7
20260505081203 56 263 0.0 0.0 0.00 0.00 0.00 82 1010.3
20260505080812 56 263 0.0 0.0 0.00 0.00 0.00 82 1027.0
20260505080703 56 263 0.0 0.0 0.00 0.00 0.00 82 1010.2
20260505080308 56 263 0.0 0.0 0.00 0.00 0.00 82 1026.8
20260505080203 56 263 0.0 0.0 0.00 0.00 0.00 82 1010.2
20260505075804 56 263 0.0 0.0 0.00 0.00 0.00 82 1026.8
20260505075704 56 263 0.0 0.0 0.00 0.00 0.00 81 1010.3
20260505075304 56 263 0.0 0.0 0.00 0.00 0.00 81 1026.9
20260505075204 56 263 0.0 0.0 0.00 0.00 0.00 81 1010.3
20260505074759 57 263 0.0 0.0 0.00 0.00 0.00 80 1026.9
20260505074704 57 263 0.0 0.0 0.00 0.00 0.00 80 1010.2
20260505074256 57 263 0.0 0.0 0.00 0.00 0.00 79 1026.8
20260505074204 57 263 0.0 0.0 0.00 0.00 0.00 79 1010.1
20260505073753 57 263 0.0 0.0 0.00 0.00 0.00 79 1026.8
20260505073706 57 263 0.0 0.0 0.00 0.00 0.00 79 1010.1
20260505073251 57 263 0.0 0.0 0.00 0.00 0.00 79 1026.9
20260505073204 57 263 0.0 0.0 0.00 0.00 0.00 79 1010.3
20260505072748 58 263 0.0 0.0 0.00 0.00 0.00 79 1026.9
20260505072704 58 263 0.0 0.0 0.00 0.00 0.00 79 1010.2
20260505072244 58 263 0.0 0.0 0.00 0.00 0.00 78 1027.0
20260505072204 58 263 0.0 0.0 0.00 0.00 0.00 78 1010.2
20260505071740 58 263 0.0 0.0 0.00 0.00 0.00 77 1027.2
20260505071703 58 263 0.0 0.0 0.00 0.00 0.00 77 1010.1
20260505071236 58 263 0.0 0.0 0.00 0.00 0.00 77 1026.9
20260505071203 58 263 0.0 0.0 0.00 0.00 0.00 77 1010.2
20260505070734 58 263 0.0 0.0 0.00 0.00 0.00 77 1027.0
20260505070703 58 263 0.0 0.0 0.00 0.00 0.00 77 1010.3
20260505070230 57 263 0.0 0.0 0.00 0.00 0.00 78 1027.2
20260505070203 57 263 0.0 0.0 0.00 0.00 0.00 78 1010.5
20260505065726 57 263 0.0 0.0 0.00 0.00 0.00 78 1027.1
20260505065704 58 263 0.0 0.0 0.00 0.00 0.00 78 1010.5
20260505065223 58 263 0.0 0.0 0.00 0.00 0.00 77 1027.1
20260505065203 58 263 0.0 0.0 0.00 0.00 0.00 77 1010.4
20260505064720 57 263 0.0 0.0 0.00 0.00 0.00 77 1027.1
20260505064704 57 263 0.0 0.0 0.00 0.00 0.00 78 1010.4
20260505064218 57 263 0.0 0.0 0.00 0.00 0.00 78 1027.2
20260505064204 57 263 0.0 0.0 0.00 0.00 0.00 78 1010.5
20260505063715 57 263 0.0 0.0 0.00 0.00 0.00 78 1027.1
20260505063703 57 263 0.0 0.0 0.00 0.00 0.00 78 1010.3
20260505063211 57 263 0.0 0.0 0.00 0.00 0.00 77 1027.1
20260505063203 57 263 0.0 0.0 0.00 0.00 0.00 77 1010.3
20260505062707 57 263 0.0 0.0 0.00 0.00 0.00 77 1027.1
20260505062205 57 263 0.0 0.0 0.00 0.00 0.00 77 1027.1
20260505062203 57 263 0.0 0.0 0.00 0.00 0.00 78 1010.3
20260505061704 57 263 0.0 0.0 0.00 0.00 0.00 78 1010.5
20260505061702 57 263 0.0 0.0 0.00 0.00 0.00 78 1027.2
20260505061204 57 263 0.0 0.0 0.00 0.00 0.00 78 1010.3
20260505061200 57 263 0.0 0.0 0.00 0.00 0.00 78 1026.9
20260505060704 56 263 0.0 0.0 0.00 0.00 0.00 78 1010.4
20260505060657 57 263 0.0 0.0 0.00 0.00 0.00 78 1027.1
20260505060204 56 263 0.0 0.0 0.00 0.00 0.00 78 1010.3
20260505060154 56 263 0.0 0.0 0.00 0.00 0.00 78 1026.9
20260505055704 56 263 0.0 0.0 0.00 0.00 0.00 77 1010.3
20260505055649 56 263 0.0 0.0 0.00 0.00 0.00 77 1026.8
20260505055146 56 263 0.0 0.0 0.00 0.00 0.00 78 1026.8
20260505054704 56 263 0.0 0.0 0.00 0.00 0.00 77 1010.2
20260505054643 56 263 0.0 0.0 0.00 0.00 0.00 77 1026.9
20260505054203 56 263 0.0 0.0 0.00 0.00 0.00 77 1010.3
20260505054141 56 263 0.0 0.0 0.00 0.00 0.00 77 1027.0
20260505053639 56 263 0.0 0.0 0.00 0.00 0.00 77 1027.1
20260505053203 56 263 0.0 0.0 0.00 0.00 0.00 76 1010.3
20260505053135 56 263 0.0 0.0 0.00 0.00 0.00 76 1026.9
20260505052703 56 263 0.0 0.0 0.00 0.00 0.00 76 1010.4
20260505052632 56 263 0.0 0.0 0.00 0.00 0.00 76 1027.1
20260505052204 56 263 0.0 0.0 0.00 0.00 0.00 76 1010.3
20260505052130 56 263 0.0 0.0 0.00 0.00 0.00 76 1027.1
20260505051704 56 263 0.0 0.0 0.00 0.00 0.00 76 1010.4
20260505051626 57 263 0.0 0.0 0.00 0.00 0.00 76 1027.1
20260505051203 56 263 0.0 1.0 0.00 0.00 0.00 75 1010.3
20260505051125 56 263 0.0 2.0 0.00 0.00 0.00 75 1026.9
20260505050703 56 263 0.0 0.0 0.00 0.00 0.00 77 1010.3
20260505050622 56 263 0.0 0.0 0.00 0.00 0.00 77 1027.0
20260505050204 56 263 0.0 0.0 0.00 0.00 0.00 76 1010.1
20260505050120 56 263 0.0 0.0 0.00 0.00 0.00 76 1026.8
20260505041704 58 263 0.0 0.0 0.00 0.00 0.00 72 1010.4
20260505041550 58 263 0.0 0.0 0.00 0.00 0.00 72 1027.1
20260505041205 57 263 0.0 0.0 0.00 0.00 0.00 71 1010.3
20260505041047 57 263 0.0 0.0 0.00 0.00 0.00 71 1027.0
20260505040544 58 263 0.0 0.0 0.00 0.00 0.00 71 1027.1
20260505040204 57 305 0.0 0.0 0.00 0.00 0.00 71 1010.1
20260505040041 57 305 0.0 0.0 0.00 0.00 0.00 71 1026.9
20260505035704 57 305 0.0 0.0 0.00 0.00 0.00 71 1010.2
20260505035537 57 305 0.0 0.0 0.00 0.00 0.00 71 1026.9
20260505035205 57 305 0.0 0.0 0.00 0.00 0.00 71 1010.0
20260505035034 57 305 0.0 0.0 0.00 0.00 0.00 71 1026.6
20260505034703 57 305 0.0 0.0 0.00 0.00 0.00 70 1009.8
20260505034530 57 305 0.0 0.0 0.00 0.00 0.00 70 1026.5
20260505034203 57 307 0.0 0.0 0.00 0.00 0.00 71 1009.9
20260505034028 57 307 0.0 0.0 0.00 0.00 0.00 71 1026.5
20260505033525 57 307 0.0 0.0 0.00 0.00 0.00 69 1026.7
20260505033205 57 307 0.0 0.0 0.00 0.00 0.00 69 1010.0
20260505033023 57 307 0.0 0.0 0.00 0.00 0.00 70 1026.7
20260505032704 57 307 0.0 0.0 0.00 0.00 0.00 68 1010.1
20260505032520 57 307 0.0 0.0 0.00 0.00 0.00 67 1027.0
20260505032204 58 307 0.0 0.0 0.00 0.00 0.00 67 1010.2
20260505032017 58 307 0.0 0.0 0.00 0.00 0.00 66 1026.9
20260505031705 58 307 0.0 0.0 0.00 0.00 0.00 65 1010.2
20260505031514 58 307 0.0 0.0 0.00 0.00 0.00 66 1026.8
20260505031203 58 307 0.0 0.0 0.00 0.00 0.00 66 1010.2
20260505031010 58 307 0.0 0.0 0.00 0.00 0.00 65 1026.8
20260505030705 57 307 0.0 0.0 0.00 0.00 0.00 67 1010.0
20260505030507 57 307 0.0 0.0 0.00 0.00 0.00 68 1026.8
20260505030204 56 307 0.0 0.0 0.00 0.00 0.00 69 1010.0
20260505030003 56 307 0.0 0.0 0.00 0.00 0.00 69 1026.8
20260505025704 57 307 0.0 0.0 0.00 0.00 0.00 68 1010.1
20260505025459 57 307 0.0 0.0 0.00 0.00 0.00 68 1026.8
20260505024959 57 307 0.0 0.0 0.00 0.00 0.00 68 1026.8
20260505024704 57 307 0.0 0.0 0.00 0.00 0.00 68 1010.1
20260505024454 57 307 0.0 0.0 0.00 0.00 0.00 68 1026.7
20260505024204 57 307 0.0 0.0 0.00 0.00 0.00 69 1010.1
20260505023952 57 307 0.0 0.0 0.00 0.00 0.00 68 1026.9
20260505023705 57 307 0.0 0.0 0.00 0.00 0.00 69 1009.9
20260505023449 57 307 0.0 0.0 0.00 0.00 0.00 69 1026.5
20260505023205 57 307 0.0 0.0 0.00 0.00 0.00 69 1010.2
20260505022946 57 307 0.0 0.0 0.00 0.00 0.00 68 1026.9
20260505022704 57 307 0.0 0.0 0.00 0.00 0.00 68 1010.3
20260505022444 57 307 0.0 0.0 0.00 0.00 0.00 68 1027.1
20260505021941 57 307 0.0 0.0 0.00 0.00 0.00 68 1027.0
20260505021704 58 307 0.0 0.0 0.00 0.00 0.00 67 1010.4
20260505021437 58 307 0.0 0.0 0.00 0.00 0.00 67 1027.1
20260505021204 58 307 0.0 0.0 0.00 0.00 0.00 66 1010.4
20260505020933 59 307 0.0 0.0 0.00 0.00 0.00 65 1027.1
20260505020703 59 307 0.0 0.0 0.00 0.00 0.00 65 1010.5
20260505020428 59 307 0.0 0.0 0.00 0.00 0.00 65 1027.0
20260505015925 59 307 0.0 0.0 0.00 0.00 0.00 65 1027.1
20260505015704 59 307 0.0 0.0 0.00 0.00 0.00 64 1010.3
20260505015423 59 307 0.0 0.0 0.00 0.00 0.00 65 1027.0